THORAD AGENA D DEB, 4144

Orbit data source: Space-Track

THORAD AGENA D DEB, 4144 is space debris in LEO originally from a launch on Tue, 30 Sep 1969 UTC launched from the Air Force Western Test Range (AFWTR). Debris objects in space refer to the collection of defunct objects orbiting the Earth. Examples of debris include non-operational satellites, rocket bodies, and fragments generated from explosions, collisions, or faulty payload assembly.

Loading next visibility...
Identifier
4144, 1969-082N
Orbit
LEO
Country
Flag of USUS
Related business
Manufacturer
Unknown
Mission
Spacecraft
Bus & Motor
Unknown
Mass
Unknown
Launch date (UTC)
1969-09-30 (57 years ago)
Launch vehicle
Unknown
Launch site
Air Force Western Test Range (AFWTR)
Object type
Payload
Rocket body
Debris
Shape & HBR
Unknown shape, 0.2 m
Radar Cross Section
Medium (>0.1 m² and <1 m²)

Expand to show TLE details & history
Last TLE update: 2 days ago

TLE from 2 days ago
0 THORAD AGENA D DEB
1  4144U 69082N   26171.44138987  .00001276  00000-0  26061-3 0  9993
2  4144  70.0741 209.5822 0032245 130.5591 229.8365 14.62931660966983
Epoch: 2026-06-20T10:35Z
TLE epoch observation values (Epoch: 2026-06-20T10:35:36.084Z)
Latitude
-0.00012°
Longitude
142.02584°
Altitude
700.846 km
Speed
7.498 km/s
True Right ascension
13h 58m 19s
True Declination
0° 00' 00"
Sunlit
Object was in full shadow at epoch
Visualization orbit readout
Latitude
Unknown
Longitude
Unknown
Altitude
Unknown
Speed
Unknown
Apparent Right ascension
Unknown
Apparent Declination
Unknown
Sunlit
N/A
Visualization observer readout
Local Sidereal Time
03:45:29
Azimuth
Unknown
Elevation
Unknown
Doppler factor
Unknown
Orbital elements
Apogee altitude
704.461 km
Perigee altitude
658.932 km
Semi-major axis
7,059.834 km
Eccentricity
0.00322
Inclination
70.0741°
RAAN
209.5822°
Arg. of periapsis
130.5591°
True anomaly
229.55486°
Mean anomaly
229.8365°
Eccentric anomaly
229.69561°
Mean motion
3.65891 °/min
Orbital period
98.39 mins
BSTAR
0.00026061

Documentation

Showing up to 5 results
|